[[{"header":{"parameterUnit":"m.s-1","parameterCategory":1,"la1":30.2991,"la2":30.254,"lo1":-89.0895,"lo2":-89.0444,"dy":0.0017,"dx":0.0017,"nx":28,"ny":28,"refTime":"2023-10-15T09:00:00:Z","depth":0,"parameterNumber":2,"parameterNumberName":"U-component_of_WINDS"},"data":[0,0,0,0,0,0,0,0,0,0,0,0,0,0,0,0,0,0,0,0,0,0,0,0,0,0,0,0,0,0,0,0,0,0,0,0,0,0,0,0,0,0,0,0,0,0,0,0,0,0,0,0,0,0,0,0,0,0,-0.1436,-0.1437,0,-0.1533,-0.1534,-0.1535,-0.1547,-0.1546,-0.1545,-0.1544,-0.1644,-0.1647,-0.165,0,0,0,0,0,0,0,0,0,0,0,0,0,-0.1261,-0.1264,-0.1436,-0.1437,-0.1438,-0.1532,-0.1534,-0.1535,-0.1547,-0.1546,-0.1545,-0.1544,-0.1642,-0.1647,-0.1651,0,0,0,0,0,0,0,0,0,0,0,0,0,-0.1345,-0.1265,-0.1436,-0.1455,-0.1458,-0.1532,-0.1534,-0.1535,-0.1547,-0.1546,-0.1544,-0.1543,-0.1641,-0.1646,-0.1651,-0.1712,0,0,-0.1667,-0.167,0,0,0,0,0,0,0,0,-0.134,-0.1351,-0.1451,-0.1454,-0.1457,-0.1526,-0.1509,-0.1595,-0.1548,-0.1513,-0.1544,-0.1542,-0.1606,-0.1614,-0.1635,-0.1717,-0.1721,-0.1668,-0.1671,-0.1673,-0.1675,0,0,0,0,0,0,0,-0.1334,-0.1347,-0.1474,-0.1453,-0.1457,-0.1459,-0.147,-0.1525,-0.1566,-0.1516,-0.1517,-0.1529,-0.1607,-0.163,-0.1637,-0.1723,-0.1668,-0.1673,-0.1676,-0.1678,-0.1859,-0.186,0,0,0,0,0,0,-0.1325,-0.1342,-0.1471,-0.1477,-0.1394,-0.1464,-0.1475,-0.1506,-0.1566,-0.1574,-0.153,-0.1529,-0.1622,-0.1631,-0.1641,-0.1716,-0.1673,-0.1678,-0.1681,-0.1857,-0.1859,-0.1861,0,0,0,0,0,0,-0.1321,-0.1336,-0.1467,-0.141,-0.1427,-0.1468,-0.1502,-0.1508,-0.1531,-0.1576,-0.1583,-0.1546,-0.1621,-0.1634,-0.1694,-0.172,-0.1681,-0.1686,-0.1855,-0.1858,-0.186,-0.1867,0,0,0,0,0,0,-0.1316,-0.1335,-0.1359,-0.141,-0.143,-0.1519,-0.1504,-0.1511,-0.154,-0.154,-0.1593,-0.16,-0.1621,-0.1686,-0.17,-0.1726,-0.169,-0.1853,-0.1856,-0.1859,-0.1865,-0.1869,-0.1873,0,0,0,0,0,-0.131,-0.1357,-0.136,-0.1375,-0.1461,-0.152,-0.1532,-0.1554,-0.1542,-0.1566,-0.1595,-0.1598,-0.1715,-0.1692,-0.1707,-0.1736,-0.1852,-0.1855,-0.1859,-0.1863,-0.1868,-0.1873,0,0,0,0,0,0,-0.1307,-0.1364,-0.1368,-0.1433,-0.1472,-0.1522,-0.1554,-0.156,-0.1603,-0.1601,-0.1627,-0.1639,-0.1698,-0.1723,-0.1697,-0.1798,-0.1782,-0.1789,-0.178,-0.1786,-0.179,-0.1783,-0.1694,0,0,0,0,0,-0.1314,-0.1358,-0.1405,-0.1459,-0.1478,-0.1512,-0.1539,-0.1553,-0.1594,-0.1611,-0.1644,-0.1684,-0.1729,-0.1758,-0.1803,-0.1868,-0.1879,-0.1895,-0.1899,-0.1903,-0.1909,-0.1944,-0.1952,-0.1873,-0.1873,-0.1873,0,0,-0.1329,-0.1366,-0.1392,-0.1459,-0.1491,-0.1536,-0.1526,-0.1574,-0.1608,-0.1618,-0.1678,-0.1703,-0.1749,-0.1812,-0.1842,-0.1835,-0.1933,-0.1907,-0.191,-0.1914,-0.1949,-0.1956,-0.1963,-0.1875,-0.1875,-0.1874,0,0,-0.138,-0.1412,-0.146,-0.1491,-0.1539,-0.1562,-0.1573,-0.1622,-0.164,-0.1699,-0.1708,-0.1748,-0.1826,-0.1858,-0.1885,-0.1946,-0.1951,-0.196,-0.1983,-0.2018,-0.2024,-0.2029,-0.2051,-0.2059,-0.1965,-0.1965,-0.1965,0,-0.1393,-0.1461,-0.1483,-0.1531,-0.156,-0.1571,-0.162,-0.1649,-0.1709,-0.1729,-0.172,-0.1817,-0.1849,-0.192,-0.1934,-0.1955,-0.1969,-0.1954,-0.2021,-0.2027,-0.2033,-0.2054,-0.2062,-0.1966,-0.1966,-0.1966,-0.1966,0,-0.1475,-0.1522,-0.1554,-0.1612,-0.1644,-0.1692,-0.1721,-0.1751,-0.1762,-0.1785,-0.1846,-0.1884,-0.1936,-0.1953,-0.1965,-0.2025,-0.202,-0.2016,-0.2,-0.204,-0.2061,-0.2069,-0.1967,-0.1967,-0.1967,-0.1966,0,0,-0.1528,-0.1596,-0.1608,-0.1634,-0.1686,-0.1723,-0.1771,-0.1821,-0.1847,-0.1887,-0.1928,-0.1993,-0.1989,-0.2019,-0.2034,-0.2064,-0.211,-0.2056,-0.2058,-0.2065,-0.2179,-0.2182,-0.2192,-0.2113,-0.2115,-0.2116,-0.2176,0,-0.1585,-0.1671,-0.1692,-0.1765,-0.1809,-0.1819,-0.1861,-0.1897,-0.192,-0.196,-0.1985,-0.203,-0.2022,-0.204,-0.207,-0.2098,-0.2133,-0.2094,-0.2151,-0.2153,-0.214,-0.2202,-0.2206,-0.226,-0.2184,-0.2185,-0.2186,0,-0.1663,-0.1705,-0.1783,-0.1829,-0.1849,-0.1886,-0.1933,-0.1971,-0.2013,-0.2027,-0.206,-0.2071,-0.2121,-0.2102,-0.2171,-0.2143,-0.2168,-0.2185,-0.2187,-0.2194,-0.2172,-0.2211,-0.2278,-0.2287,-0.2199,-0.2198,-0.2197,0,-0.1695,-0.177,-0.1827,-0.1848,-0.1904,-0.193,-0.1954,-0.1994,-0.2023,-0.2064,-0.2083,-0.213,-0.2155,-0.2191,-0.2214,-0.2198,-0.2281,-0.2264,-0.2294,-0.2294,-0.2312,-0.2311,-0.2385,-0.2327,-0.2327,-0.2326,-0.2326,0,-0.1757,-0.1804,-0.1841,-0.1876,-0.1929,-0.1952,-0.2004,-0.2028,-0.2063,-0.2103,-0.2114,-0.2151,-0.2179,-0.2219,-0.2238,-0.2291,-0.2303,-0.2316,-0.232,-0.2315,-0.2313,-0.2332,-0.2329,-0.2329,-0.2328,-0.2328,-0.2327,0,-0.1801,-0.1828,-0.189,-0.1937,-0.195,-0.1987,-0.2028,-0.2061,-0.2083,-0.2133,-0.2146,-0.2181,-0.2229,-0.2255,-0.2315,-0.2327,-0.2388,-0.239,-0.2374,-0.2376,-0.2404,-0.2401,-0.2493,-0.2506,-0.2439,-0.244,-0.2441,0,-0.1839,-0.1876,-0.1927,-0.1954,-0.1979,-0.2022,-0.2052,-0.2075,-0.2105,-0.2155,-0.2182,-0.2231,-0.2271,-0.2346,-0.2377,-0.2423,-0.2426,-0.2455,-0.2434,-0.2427,-0.2427,-0.2425,-0.2429,-0.246,-0.246,-0.2461,-0.2461,0,-0.1904,-0.1916,-0.1957,-0.2004,-0.2038,-0.2076,-0.2113,-0.2135,-0.2165,-0.2198,-0.2247,-0.2277,-0.2338,-0.2386,-0.2434,-0.2459,-0.2465,-0.2467,-0.2477,-0.2472,-0.2462,-0.2468,-0.2385,-0.2466,-0.2465,-0.2465,-0.2465,-0.2464,-0.1947,-0.198,-0.2021,-0.2067,-0.2097,-0.2132,-0.2165,-0.2192,-0.2233,-0.2284,-0.2296,-0.2347,-0.2387,-0.2452,-0.2477,-0.2518,-0.2512,-0.2526,-0.2529,-0.2532,-0.2534,-0.2455,-0.2526,-0.2526,-0.2526,-0.2526,-0.2526,0,-0.2013,-0.2039,-0.2081,-0.2133,-0.2169,-0.2171,-0.2212,-0.2242,-0.2287,-0.2324,-0.2363,-0.2418,-0.2465,-0.2498,-0.2545,-0.2571,-0.2575,-0.2582,-0.2581,-0.2586,-0.2536,-0.2523,-0.2578,-0.2578,-0.2578,-0.2578,-0.2578,-0.2578,-0.2051,-0.2107,-0.2123,-0.2193,-0.2219,-0.227,-0.2293,-0.2324,-0.2354,-0.2415,-0.2454,-0.2475,-0.251,-0.2559,-0.2602,-0.261,-0.2627,-0.2634,-0.2643,-0.2596,-0.259,-0.2585,-0.2573,-0.2638,-0.2638,-0.2691,-0.2691,-0.2691]},{"header":{"parameterUnit":"m.s-1","parameterCategory":1,"la1":30.2991,"la2":30.254,"lo1":-89.0895,"lo2":-89.0444,"dy":0.0017,"dx":0.0017,"nx":28,"ny":28,"refTime":"2023-10-15T09:00:00:Z","depth":0,"parameterNumber":3,"parameterNumberName":"V-component_of_WINDS"},"data":[0,0,0,0,0,0,0,0,0,0,0,0,0,0,0,0,0,0,0,0,0,0,0,0,0,0,0,0,0,0,0,0,0,0,0,0,0,0,0,0,0,0,0,0,0,0,0,0,0,0,0,0,0,0,0,0,0,0,-5.7823,-5.7824,0,-5.7978,-5.798,-5.7981,-5.7878,-5.7873,-5.7868,-5.7864,-5.8016,-5.8024,-5.8033,0,0,0,0,0,0,0,0,0,0,0,0,0,-5.7429,-5.7437,-5.7822,-5.7824,-5.7826,-5.7978,-5.798,-5.7982,-5.7878,-5.7873,-5.7867,-5.7861,-5.8013,-5.8023,-5.8033,0,0,0,0,0,0,0,0,0,0,0,0,0,-5.7594,-5.7439,-5.7822,-5.7793,-5.7792,-5.7977,-5.798,-5.7982,-5.788,-5.7872,-5.7865,-5.7859,-5.801,-5.8022,-5.8035,-5.8255,0,0,-5.8074,-5.8079,0,0,0,0,0,0,0,0,-5.7584,-5.7608,-5.7795,-5.7795,-5.7795,-5.7901,-5.7897,-5.8074,-5.7881,-5.7846,-5.7863,-5.7855,-5.7983,-5.7998,-5.8042,-5.8262,-5.8269,-5.8075,-5.8082,-5.8088,-5.8092,0,0,0,0,0,0,0,-5.7573,-5.7601,-5.7884,-5.7798,-5.7798,-5.777,-5.7785,-5.793,-5.7952,-5.7849,-5.7842,-5.7862,-5.7981,-5.803,-5.8045,-5.8271,-5.8074,-5.8086,-5.8094,-5.8099,-5.8679,-5.8686,0,0,0,0,0,0,-5.7565,-5.7592,-5.7879,-5.7888,-5.767,-5.7783,-5.78,-5.7874,-5.795,-5.7955,-5.7868,-5.7856,-5.8012,-5.803,-5.805,-5.8313,-5.8088,-5.81,-5.8107,-5.8671,-5.8681,-5.8689,0,0,0,0,0,0,-5.7557,-5.7592,-5.7872,-5.7738,-5.7772,-5.7797,-5.7881,-5.7881,-5.7929,-5.7965,-5.7968,-5.7914,-5.8007,-5.8032,-5.8205,-5.8317,-5.8105,-5.8117,-5.8662,-5.8674,-5.8685,-5.8841,0,0,0,0,0,0,-5.7546,-5.7589,-5.7675,-5.7741,-5.778,-5.8028,-5.7888,-5.7889,-5.7952,-5.7939,-5.8009,-5.8014,-5.8003,-5.8187,-5.8218,-5.8331,-5.8127,-5.8652,-5.8667,-5.8681,-5.8826,-5.8857,-5.8883,0,0,0,0,0,-5.7533,-5.7712,-5.768,-5.7715,-5.7888,-5.8035,-5.8056,-5.8043,-5.7962,-5.8047,-5.807,-5.8011,-5.83,-5.8206,-5.824,-5.8358,-5.8645,-5.8663,-5.868,-5.8814,-5.8851,-5.8883,0,0,0,0,0,0,-5.7656,-5.772,-5.7686,-5.7892,-5.7959,-5.8017,-5.8124,-5.8083,-5.8173,-5.8156,-5.8133,-5.815,-5.8332,-5.8361,-5.8256,-5.8574,-5.8459,-5.8484,-5.8549,-5.8585,-5.8613,-5.8602,-5.8137,0,0,0,0,0,-5.7708,-5.7824,-5.7872,-5.8049,-5.8085,-5.81,-5.8163,-5.8147,-5.8214,-5.8242,-5.8277,-5.8343,-5.8448,-5.8517,-5.8616,-5.883,-5.8843,-5.8927,-5.8956,-5.8979,-5.9001,-5.9116,-5.9154,-5.8747,-5.8747,-5.8746,0,0,-5.7815,-5.7864,-5.7938,-5.8076,-5.8126,-5.8245,-5.8124,-5.8255,-5.8342,-5.826,-5.8427,-5.8455,-5.8527,-5.8722,-5.8809,-5.8752,-5.9116,-5.9001,-5.902,-5.9029,-5.9138,-5.9176,-5.9211,-5.8759,-5.8756,-5.8755,0,0,-5.8071,-5.812,-5.8274,-5.8327,-5.8405,-5.8413,-5.845,-5.8515,-5.8531,-5.8698,-5.864,-5.8741,-5.8923,-5.8977,-5.9028,-5.9305,-5.9254,-5.9337,-5.9486,-5.9598,-5.963,-5.9658,-5.9757,-5.9793,-5.9359,-5.9359,-5.936,0,-5.8194,-5.8373,-5.8357,-5.8493,-5.8555,-5.8488,-5.8642,-5.8693,-5.8799,-5.8842,-5.8777,-5.9005,-5.9048,-5.9254,-5.9322,-5.9365,-5.9405,-5.933,-5.9627,-5.9655,-5.9681,-5.9775,-5.9812,-5.9369,-5.9368,-5.9367,-5.9366,0,-5.852,-5.8645,-5.8759,-5.8866,-5.894,-5.9084,-5.9088,-5.9164,-5.9141,-5.9156,-5.9326,-5.9376,-5.9484,-5.9531,-5.9509,-5.9734,-5.9697,-5.963,-5.9514,-5.973,-5.9818,-5.9854,-5.9383,-5.9379,-5.9376,-5.9374,0,0,-5.886,-5.8956,-5.8998,-5.9045,-5.9126,-5.9222,-5.9362,-5.9469,-5.9535,-5.961,-5.9726,-5.9881,-5.9821,-5.9879,-5.9862,-5.996,-6.0176,-5.9881,-5.9882,-5.9935,-6.0427,-6.0477,-6.0519,-6.0142,-6.0149,-6.0155,-6.0421,0,-5.9121,-5.9369,-5.9358,-5.9589,-5.9704,-5.9642,-5.9764,-5.9825,-5.9842,-5.994,-5.9957,-6.0068,-5.9979,-6.0014,-6.0108,-6.013,-6.0275,-6.011,-6.0249,-6.0254,-6.0235,-6.0565,-6.0619,-6.0868,-6.0455,-6.0461,-6.0465,0,-5.946,-5.9549,-5.9792,-5.9856,-5.9904,-6.0014,-6.0112,-6.0206,-6.0274,-6.0279,-6.0345,-6.0312,-6.0451,-6.0331,-6.0522,-6.0411,-6.0466,-6.0486,-6.0495,-6.0508,-6.0374,-6.0588,-6.0947,-6.0985,-6.0519,-6.0514,-6.0511,0,-5.9684,-5.9863,-6.0032,-6.0075,-6.0154,-6.0233,-6.0269,-6.033,-6.0395,-6.0479,-6.0521,-6.062,-6.0674,-6.075,-6.0743,-6.0656,-6.0938,-6.0817,-6.0945,-6.0945,-6.1008,-6.1004,-6.1382,-6.1043,-6.1042,-6.1041,-6.104,0,-5.9977,-6.0129,-6.0134,-6.0239,-6.0405,-6.039,-6.0555,-6.0582,-6.0637,-6.0744,-6.0694,-6.0795,-6.078,-6.088,-6.0876,-6.1035,-6.1059,-6.1066,-6.1063,-6.1071,-6.1071,-6.1108,-6.1091,-6.1051,-6.1049,-6.1047,-6.1045,0,-6.0257,-6.0267,-6.0447,-6.0507,-6.0526,-6.0646,-6.0696,-6.0794,-6.0806,-6.0942,-6.0972,-6.0991,-6.1106,-6.1108,-6.1239,-6.1235,-6.143,-6.1407,-6.1409,-6.1404,-6.1533,-6.1521,-6.1949,-6.2004,-6.1628,-6.1632,-6.1635,0,-6.0444,-6.056,-6.0633,-6.0702,-6.0744,-6.0855,-6.0922,-6.091,-6.0982,-6.1068,-6.1155,-6.1266,-6.1354,-6.1541,-6.1565,-6.1665,-6.1644,-6.1787,-6.1658,-6.1663,-6.1647,-6.1641,-6.1652,-6.1812,-6.1816,-6.182,-6.1823,0,-6.0776,-6.0775,-6.0875,-6.0978,-6.106,-6.1139,-6.1211,-6.127,-6.1266,-6.1348,-6.1467,-6.1536,-6.1671,-6.1782,-6.1878,-6.1912,-6.1867,-6.1863,-6.1898,-6.1908,-6.1905,-6.1909,-6.1478,-6.1853,-6.185,-6.1848,-6.1846,-6.1845,-6.1015,-6.1115,-6.1183,-6.1296,-6.135,-6.1419,-6.1514,-6.1539,-6.1639,-6.1749,-6.1735,-6.1868,-6.193,-6.2056,-6.2098,-6.22,-6.215,-6.22,-6.2213,-6.2226,-6.2241,-6.1888,-6.2217,-6.2216,-6.2215,-6.2215,-6.2214,0,-6.1345,-6.1386,-6.149,-6.1595,-6.1683,-6.1635,-6.1713,-6.1789,-6.1907,-6.1971,-6.206,-6.2196,-6.2303,-6.2335,-6.2438,-6.2513,-6.2495,-6.254,-6.2535,-6.2544,-6.2279,-6.2239,-6.2553,-6.2553,-6.2553,-6.2553,-6.2553,-6.2553,-6.1528,-6.1694,-6.1702,-6.1893,-6.1932,-6.2063,-6.2112,-6.2175,-6.2226,-6.2381,-6.2471,-6.2492,-6.2543,-6.2649,-6.2744,-6.2751,-6.2791,-6.2845,-6.2844,-6.2596,-6.2562,-6.253,-6.2492,-6.2854,-6.2854,-6.3099,-6.3102,-6.3103]}]]